TimeEST,TemperatureF,Dew PointF,Humidity,Sea Level PressureIn,VisibilityMPH,Wind Direction,Wind SpeedMPH,Gust SpeedMPH,PrecipitationIn,Events,Conditions,WindDirDegrees,DateUTC
12:54 AM,30.0,23.0,75,30.35,10.0,North,4.6,-,N/A,,Clear,360,2013-11-20 05:54:00
1:54 AM,33.1,23.0,66,30.38,10.0,NNW,5.8,-,N/A,,Clear,340,2013-11-20 06:54:00
2:54 AM,30.9,21.9,69,30.41,10.0,NNW,4.6,-,N/A,,Clear,340,2013-11-20 07:54:00
3:54 AM,30.9,21.9,69,30.42,10.0,North,5.8,-,N/A,,Clear,360,2013-11-20 08:54:00
4:54 AM,30.0,21.9,72,30.45,10.0,NNW,4.6,-,N/A,,Clear,340,2013-11-20 09:54:00
5:54 AM,30.0,21.9,72,30.47,10.0,NNW,3.5,-,N/A,,Clear,340,2013-11-20 10:54:00
6:54 AM,27.0,21.9,81,30.50,10.0,Calm,Calm,-,N/A,,Clear,0,2013-11-20 11:54:00
7:54 AM,30.0,23.0,75,30.52,10.0,Calm,Calm,-,N/A,,Clear,0,2013-11-20 12:54:00
8:54 AM,32.0,23.0,69,30.55,10.0,NNW,3.5,-,N/A,,Clear,340,2013-11-20 13:54:00
9:54 AM,36.0,23.0,59,30.56,10.0,NE,10.4,-,N/A,,Clear,40,2013-11-20 14:54:00
10:54 AM,39.0,24.1,55,30.56,10.0,NE,9.2,-,N/A,,Clear,50,2013-11-20 15:54:00
11:54 AM,43.0,25.0,49,30.55,10.0,ENE,10.4,-,N/A,,Clear,60,2013-11-20 16:54:00
12:54 PM,43.0,21.0,42,30.55,10.0,ENE,8.1,-,N/A,,Clear,60,2013-11-20 17:54:00
1:54 PM,44.1,19.9,38,30.53,10.0,Variable,4.6,-,N/A,,Clear,0,2013-11-20 18:54:00
2:54 PM,46.0,19.0,34,30.52,10.0,ENE,8.1,-,N/A,,Clear,60,2013-11-20 19:54:00
3:54 PM,45.0,19.0,36,30.52,10.0,East,5.8,-,N/A,,Clear,80,2013-11-20 20:54:00
4:54 PM,37.0,21.9,54,30.54,10.0,Calm,Calm,-,N/A,,Clear,0,2013-11-20 21:54:00
5:54 PM,36.0,26.1,67,30.55,10.0,ESE,6.9,-,N/A,,Clear,110,2013-11-20 22:54:00
6:54 PM,32.0,24.1,73,30.56,10.0,East,5.8,-,N/A,,Clear,80,2013-11-20 23:54:00
7:54 PM,28.0,23.0,81,30.57,10.0,Calm,Calm,-,N/A,,Clear,0,2013-11-21 00:54:00
8:54 PM,28.0,23.0,81,30.56,10.0,Calm,Calm,-,N/A,,Clear,0,2013-11-21 01:54:00
9:54 PM,30.0,23.0,75,30.56,10.0,Calm,Calm,-,N/A,,Clear,0,2013-11-21 02:54:00
10:54 PM,30.0,23.0,75,30.57,10.0,Calm,Calm,-,N/A,,Clear,0,2013-11-21 03:54:00
11:54 PM,30.0,21.9,72,30.57,10.0,Calm,Calm,-,N/A,,Clear,0,2013-11-21 04:54:00